EW9903 Weather Reports


time (UTC)temp
C
wind
direction
speed
KPH
gust
KPH
rain 1hr
cm
rain 24hr
cm
rain mn
cm
humidity
%
barometer
mb
20260505093148 13 264 1.6 9.7 0.00 0.00 0.00 54 1014.1
20260505092847 13 267 1.6 12.9 0.00 0.00 0.00 54 1014.1
20260505091646 13 181 1.6 11.3 0.00 0.00 0.00 54 1014.1
20260505091145 13 157 1.6 8.0 0.00 0.00 0.00 54 1014.2
20260505090643 13 277 3.2 9.7 0.00 0.00 0.00 54 1014.2
20260505090413 13 267 1.6 12.9 0.00 0.00 0.00 54 1014.2
20260505085642 13 248 1.6 12.9 0.00 0.00 0.00 54 1014.2
20260505085142 13 278 1.6 9.7 0.00 0.00 0.00 54 1014.2
20260505084641 13 157 1.6 11.3 0.00 0.00 0.00 53 1014.2
20260505084141 13 178 1.6 11.3 0.00 0.00 0.00 53 1014.2
20260505083642 13 199 1.6 8.0 0.00 0.00 0.00 53 1014.4
20260505083142 13 163 1.6 9.7 0.00 0.00 0.00 53 1014.4
20260505082638 13 267 1.6 12.9 0.00 0.00 0.00 52 1014.2
20260505082138 13 282 3.2 14.5 0.00 0.00 0.00 52 1014.2
20260505081638 13 178 3.2 14.5 0.00 0.00 0.00 51 1014.2
20260505081137 13 170 1.6 14.5 0.00 0.00 0.00 50 1014.4
20260505080908 13 159 1.6 16.1 0.00 0.00 0.00 50 1014.4
20260505080138 13 186 1.6 16.1 0.00 0.00 0.00 50 1014.5
20260505075637 13 258 1.6 12.9 0.00 0.00 0.00 49 1014.5
20260505075138 13 169 3.2 12.9 0.00 0.00 0.00 49 1014.5
20260505074637 13 185 3.2 14.5 0.00 0.00 0.00 49 1014.6
20260505074133 13 236 1.6 14.5 0.00 0.00 0.00 48 1014.5
20260505073634 13 259 1.6 12.9 0.00 0.00 0.00 48 1014.6
20260505073134 13 281 3.2 12.9 0.00 0.00 0.00 48 1014.6
20260505072633 13 186 1.6 12.9 0.00 0.00 0.00 47 1014.6
20260505072133 13 266 1.6 12.9 0.00 0.00 0.00 47 1014.5
20260505071635 13 192 3.2 16.1 0.00 0.00 0.00 47 1014.6
20260505071135 13 277 3.2 16.1 0.00 0.00 0.00 47 1014.7
20260505070635 13 327 3.2 14.5 0.00 0.00 0.00 47 1014.6
20260505070134 13 248 3.2 14.5 0.00 0.00 0.00 47 1014.8
20260505065634 13 250 1.6 9.7 0.00 0.00 0.00 46 1014.7
20260505065400 13 281 1.6 9.7 0.00 0.00 0.00 46 1014.8
20260505064632 13 263 0.0 6.4 0.00 0.00 0.00 45 1014.7
20260505064132 13 173 0.0 11.3 0.00 0.00 0.00 44 1014.7
20260505063632 14 285 1.6 11.3 0.00 0.00 0.00 44 1014.7
20260505063402 14 259 1.6 12.9 0.00 0.00 0.00 44 1014.6
20260505062859 14 142 1.6 16.1 0.00 0.00 0.00 44 1014.7
20260505062134 14 196 1.6 16.1 0.00 0.00 0.00 43 1014.8
20260505061632 14 189 1.6 12.9 0.00 0.00 0.00 42 1014.8
20260505061145 14 232 3.2 16.1 0.00 0.00 0.00 42 1014.8
20260505060630 14 137 1.6 16.1 0.00 0.00 0.00 42 1014.8
20260505060128 14 277 1.6 9.7 0.00 0.00 0.00 41 1014.8
20260505055629 14 263 3.2 16.1 0.00 0.00 0.00 40 1014.8
20260505055122 14 247 3.2 17.7 0.00 0.00 0.00 38 1014.7
20260505054621 14 186 1.6 17.7 0.00 0.00 0.00 37 1014.6
20260505054120 15 261 3.2 12.9 0.00 0.00 0.00 36 1014.7
20260505053620 15 164 4.8 24.1 0.00 0.00 0.00 35 1014.8
20260505053115 15 186 4.8 24.1 0.00 0.00 0.00 34 1014.8
20260505052843 15 178 1.6 14.5 0.00 0.00 0.00 32 1014.9
20260505052115 15 181 1.6 14.5 0.00 0.00 0.00 32 1014.9
20260505051616 15 180 1.6 11.3 0.00 0.00 0.00 31 1014.9
20260505051114 15 182 1.6 11.3 0.00 0.00 0.00 32 1015.0
20260505050617 15 261 3.2 14.5 0.00 0.00 0.00 32 1015.2
20260505050341 15 271 3.2 14.5 0.00 0.00 0.00 32 1015.0
20260505041603 15 198 1.6 16.1 0.00 0.00 0.00 31 1015.0
20260505041105 15 267 3.2 17.7 0.00 0.00 0.00 31 1015.0
20260505040604 15 244 3.2 17.7 0.00 0.00 0.00 31 1014.9
20260505040115 15 189 3.2 16.1 0.00 0.00 0.00 31 1015.0
20260505035607 15 278 3.2 14.5 0.00 0.00 0.00 31 1014.9
20260505035103 15 178 1.6 14.5 0.00 0.00 0.00 31 1015.0
20260505034816 15 230 1.6 9.7 0.00 0.00 0.00 31 1014.9
20260505034049 16 183 1.6 9.7 0.00 0.00 0.00 31 1014.8
20260505033550 16 173 1.6 8.0 0.00 0.00 0.00 32 1014.8
20260505033049 16 164 1.6 6.4 0.00 0.00 0.00 32 1014.6
20260505032545 16 163 1.6 6.4 0.00 0.00 0.00 31 1014.5
20260505032046 16 173 1.6 12.9 0.00 0.00 0.00 31 1014.5
20260505031541 16 173 4.8 20.9 0.00 0.00 0.00 31 1014.4
20260505031040 16 182 4.8 20.9 0.00 0.00 0.00 31 1014.4
20260505030539 16 246 3.2 11.3 0.00 0.00 0.00 31 1014.4
20260505030040 16 168 3.2 11.3 0.00 0.00 0.00 30 1014.2
20260505025539 16 180 3.2 17.7 0.00 0.00 0.00 30 1014.1
20260505025040 16 161 6.4 19.3 0.00 0.00 0.00 30 1014.1
20260505024539 16 184 4.8 19.3 0.00 0.00 0.00 30 1014.0
20260505024301 16 194 3.2 14.5 0.00 0.00 0.00 29 1014.1
20260505023537 16 169 3.2 14.5 0.00 0.00 0.00 29 1013.9
20260505023035 16 271 4.8 19.3 0.00 0.00 0.00 29 1014.0
20260505022535 16 285 4.8 19.3 0.00 0.00 0.00 29 1013.9
20260505022258 16 277 4.8 20.9 0.00 0.00 0.00 29 1013.9
20260505021533 16 208 3.2 20.9 0.00 0.00 0.00 28 1014.0
20260505021035 17 161 3.2 14.5 0.00 0.00 0.00 28 1013.8
20260505020738 17 196 3.2 14.5 0.00 0.00 0.00 28 1013.8
20260505015746 17 171 4.8 17.7 0.00 0.00 0.00 27 1013.8
20260505015014 17 186 4.8 17.7 0.00 0.00 0.00 27 1013.7
20260505014731 17 192 4.8 20.9 0.00 0.00 0.00 26 1013.7
20260505014001 17 173 4.8 20.9 0.00 0.00 0.00 26 1013.7
20260505013454 17 161 4.8 17.7 0.00 0.00 0.00 26 1013.7
20260505012949 17 251 6.4 20.9 0.00 0.00 0.00 26 1013.7
20260505012444 17 187 4.8 20.9 0.00 0.00 0.00 25 1013.4
20260505011937 18 262 4.8 25.7 0.00 0.00 0.00 25 1013.7
20260505011658 18 162 6.4 25.7 0.00 0.00 0.00 25 1013.8
20260505010938 18 185 6.4 20.9 0.00 0.00 0.00 24 1013.8
20260505010436 18 185 6.4 19.3 0.00 0.00 0.00 24 1013.9
20260505005932 18 261 4.8 19.3 0.00 0.00 0.00 23 1013.9
20260505005433 18 273 6.4 24.1 0.00 0.00 0.00 24 1013.8
20260505004934 18 105 9.7 27.4 0.00 0.00 0.00 24 1013.8
20260505004432 18 198 9.7 27.4 0.00 0.00 0.00 24 1013.8
20260505003933 18 184 8.0 25.7 0.00 0.00 0.00 23 1013.9
20260505003432 18 165 9.7 29.0 0.00 0.00 0.00 24 1013.8
20260505002933 18 207 14.5 29.0 0.00 0.00 0.00 24 1013.9
20260505002432 18 161 11.3 25.7 0.00 0.00 0.00 24 1013.8
20260505001932 18 213 6.4 24.1 0.00 0.00 0.00 24 1013.8
20260505001432 18 221 8.0 29.0 0.00 0.00 0.00 25 1014.0
20260505000932 18 161 12.9 29.0 0.00 0.00 0.00 26 1013.8
20260505000432 18 144 9.7 29.0 0.00 0.00 0.00 26 1013.9
20260505000204 19 173 6.4 33.8 0.00 0.00 0.00 26 1014.0
20260504235433 18 279 11.3 33.8 0.00 0.00 0.00 26 1013.9
20260504234929 18 180 14.5 29.0 0.00 0.00 0.00 25 1014.0
20260504234425 18 192 11.3 27.4 0.00 0.00 0.00 25 1013.9
20260504233918 19 180 8.0 27.4 0.00 0.00 0.00 25 1013.9
20260504233413 19 255 4.8 19.3 0.00 0.00 0.00 26 1013.9
20260504233130 19 264 8.0 25.7 0.00 0.00 0.00 26 1014.0
20260504232401 19 162 9.7 27.4 0.00 0.00 0.00 26 1014.1
20260504232130 19 207 8.0 27.4 0.00 0.00 0.00 26 1014.0
20260504231356 20 265 6.4 22.5 0.00 0.00 0.00 26 1013.9
20260504230857 20 203 8.0 20.9 0.00 0.00 0.00 26 1014.1
20260504230357 20 269 8.0 20.9 0.00 0.00 0.00 27 1014.0
20260504225854 20 175 6.4 30.6 0.00 0.00 0.00 26 1013.8
20260504225623 20 305 6.4 30.6 0.00 0.00 0.00 25 1013.9
20260504224857 20 180 6.4 24.1 0.00 0.00 0.00 27 1013.9
20260504224617 20 285 6.4 24.1 0.00 0.00 0.00 27 1014.0
20260504223853 20 128 8.0 30.6 0.00 0.00 0.00 28 1014.0
20260504223353 21 194 6.4 30.6 0.00 0.00 0.00 25 1013.8
20260504222851 21 169 4.8 19.3 0.00 0.00 0.00 27 1013.8
20260504222351 20 254 4.8 19.3 0.00 0.00 0.00 27 1013.7
20260504221852 20 289 4.8 25.7 0.00 0.00 0.00 26 1013.9
20260504221612 20 296 6.4 25.7 0.00 0.00 0.00 28 1013.8
20260504220850 20 270 4.8 25.7 0.00 0.00 0.00 30 1013.9
20260504220551 21 214 8.0 25.7 0.00 0.00 0.00 31 1014.0
20260504215342 21 165 8.0 25.7 0.00 0.00 0.00 31 1014.2
20260504215103 20 153 8.0 22.5 0.00 0.00 0.00 32 1014.2
20260504214342 20 171 6.4 22.5 0.00 0.00 0.00 32 1014.2
20260504214111 20 159 6.4 25.7 0.00 0.00 0.00 33 1014.4
20260504213343 20 177 9.7 35.4 0.00 0.00 0.00 32 1014.6
20260504212842 20 167 9.7 35.4 0.00 0.00 0.00 33 1014.7
20260504212605 20 173 9.7 25.7 0.00 0.00 0.00 33 1014.6
20260504211843 20 184 9.7 27.4 0.00 0.00 0.00 33 1014.7
20260504211343 20 132 8.0 27.4 0.00 0.00 0.00 33 1014.6
20260504210843 20 279 9.7 22.5 0.00 0.00 0.00 33 1014.6
20260504210339 20 188 9.7 20.9 0.00 0.00 0.00 33 1014.7
20260504205838 20 189 11.3 25.7 0.00 0.00 0.00 33 1014.6
20260504205601 20 161 11.3 25.7 0.00 0.00 0.00 32 1014.9
20260504204838 20 148 8.0 24.1 0.00 0.00 0.00 31 1014.8
20260504204339 20 238 8.0 24.1 0.00 0.00 0.00 31 1014.8
20260504203838 20 275 11.3 25.7 0.00 0.00 0.00 31 1014.7
20260504203338 20 174 11.3 27.4 0.00 0.00 0.00 32 1014.8
20260504202840 20 156 8.0 27.4 0.00 0.00 0.00 31 1014.7
20260504202603 20 217 9.7 29.0 0.00 0.00 0.00 30 1014.8
20260504202103 20 176 12.9 29.0 0.00 0.00 0.00 31 1015.2
20260504201338 19 191 12.9 27.4 0.00 0.00 0.00 30 1015.4
20260504200838 20 198 11.3 25.7 0.00 0.00 0.00 30 1015.4
20260504200338 20 188 11.3 27.4 0.00 0.00 0.00 31 1015.4
20260504195839 19 334 11.3 27.4 0.00 0.00 0.00 32 1015.2
20260504195339 20 186 11.3 24.1 0.00 0.00 0.00 31 1015.2
20260504195109 20 187 9.7 27.4 0.00 0.00 0.00 31 1015.0
20260504194609 20 175 8.0 27.4 0.00 0.00 0.00 32 1015.0
20260504193837 20 142 8.0 22.5 0.00 0.00 0.00 32 1015.0
20260504193336 20 186 9.7 24.1 0.00 0.00 0.00 33 1015.2
20260504192836 20 184 9.7 24.1 0.00 0.00 0.00 33 1015.2
20260504192337 20 263 8.0 24.1 0.00 0.00 0.00 33 1015.4
20260504191835 20 177 8.0 19.3 0.00 0.00 0.00 36 1015.5
20260504191333 20 181 8.0 24.1 0.00 0.00 0.00 36 1015.4
20260504190832 20 206 9.7 24.1 0.00 0.00 0.00 37 1015.3
20260504190335 19 213 9.7 25.7 0.00 0.00 0.00 39 1015.2
20260504190106 19 183 9.7 25.7 0.00 0.00 0.00 40 1015.2
20260504185333 19 279 9.7 24.1 0.00 0.00 0.00 39 1015.4
20260504184833 19 135 11.3 24.1 0.00 0.00 0.00 39 1015.5
20260504184332 19 207 9.7 27.4 0.00 0.00 0.00 38 1015.5
20260504183833 19 167 9.7 27.4 0.00 0.00 0.00 37 1015.4
20260504183328 18 148 12.9 32.2 0.00 0.00 0.00 37 1015.4
20260504183051 18 192 11.3 32.2 0.00 0.00 0.00 36 1015.5
20260504182318 18 180 8.0 25.7 0.00 0.00 0.00 37 1015.6
20260504181819 18 187 6.4 17.7 0.00 0.00 0.00 38 1015.6
20260504181317 18 170 4.8 17.7 0.00 0.00 0.00 36 1015.6
20260504180817 18 180 4.8 16.1 0.00 0.00 0.00 38 1015.6
20260504180316 18 127 8.0 24.1 0.00 0.00 0.00 39 1015.8
20260504180306 18 190 9.7 25.7 0.00 0.00 0.00 40 1016.0
20260504175317 18 184 6.4 25.7 0.00 0.00 0.00 40 1016.1
20260504174814 18 173 9.7 22.5 0.00 0.00 0.00 40 1016.1
20260504174315 18 184 12.9 30.6 0.00 0.00 0.00 40 1015.8
20260504173813 18 174 14.5 30.6 0.00 0.00 0.00 41 1015.8
20260504173312 18 175 14.5 27.4 0.00 0.00 0.00 43 1015.5
20260504172812 18 176 14.5 29.0 0.00 0.00 0.00 43 1015.7
20260504172310 18 164 11.3 29.0 0.00 0.00 0.00 45 1015.5
20260504171811 18 162 11.3 25.7 0.00 0.00 0.00 45 1015.6
20260504171311 18 264 11.3 25.7 0.00 0.00 0.00 45 1015.8
20260504170808 18 165 9.7 22.5 0.00 0.00 0.00 44 1015.7
20260504170306 18 171 6.4 19.3 0.00 0.00 0.00 46 1015.7
20260504150732 16 144 4.8 16.1 0.00 0.00 0.00 50 1015.4
20260504150228 16 221 4.8 16.1 0.00 0.00 0.00 50 1015.3
20260504140648 15 261 0.0 1.6 0.00 0.00 0.00 51 1015.5
20260504140414 15 261 0.0 1.6 0.00 0.00 0.00 51 1015.4
20260504130632 14 261 0.0 4.8 0.00 0.00 0.00 50 1014.9
20260504130133 14 218 0.0 4.8 0.00 0.00 0.00 50 1014.7
20260504120111 15 186 0.0 0.0 0.00 0.00 0.00 48 1014.8
20260504110603 16 273 1.6 9.7 0.00 0.00 0.00 46 1015.3
20260504100548 16 181 0.0 6.4 0.00 0.00 0.00 42 1015.6